Location: Pasadena, ca
(34.1243°N, 118.1037°W)
Time: 11:46:59
(UTC-07:00)

Vanguard 2 Rocket - All Passes

Search period start: 23 October 2017 00:00
Search period end: 02 November 2017 00:00
Orbit: 555 x 3327 km, 32.9° (Epoch: 22 October)

Date Brightness Start Highest point End Pass type
(mag) Time Alt. Az. Time Alt. Az. Time Alt. Az.
23 Oct - 09:58:04 10° S 10:00:23 15° SE 10:02:58 10° ESE daylight
23 Oct - 12:08:01 10° WSW 12:12:28 63° SSE 12:19:30 10° E daylight
23 Oct - 14:19:52 10° W 14:25:57 81° S 14:37:00 10° E daylight
23 Oct - 16:32:15 10° W 16:40:36 56° SSW 16:55:15 10° SE daylight
23 Oct - 18:46:40 10° W 18:56:29 29° SSW 19:10:25 10° SSE visible
24 Oct - 11:09:36 10° SW 11:13:30 43° SSE 11:18:53 10° E daylight
24 Oct - 13:21:14 10° W 13:26:24 82° S 13:35:22 10° E daylight
24 Oct - 15:33:21 10° W 15:40:28 64° SSW 15:53:23 10° ESE daylight
24 Oct - 17:46:40 10° W 17:55:44 35° SSW 18:09:50 10° SSE daylight
24 Oct - 20:06:22 10° WSW 20:12:09 13° SW 20:18:45 10° SSW visible
25 Oct - 10:11:21 10° SSW 10:14:41 26° SSE 10:18:36 10° E daylight
25 Oct - 12:22:39 10° WSW 12:27:08 76° S 12:34:15 10° E daylight
25 Oct - 14:34:37 10° W 14:40:40 72° S 14:51:34 10° ESE daylight
25 Oct - 16:47:15 10° W 16:55:17 42° SSW 17:08:43 10° SE daylight
25 Oct - 19:03:25 10° WSW 19:11:12 18° SSW 19:21:12 10° S visible
26 Oct - 09:13:30 10° S 09:15:52 15° SSE 09:18:18 10° ESE daylight
26 Oct - 11:24:03 10° WSW 11:28:04 62° SSE 11:33:42 10° E daylight
26 Oct - 13:36:00 10° W 13:41:09 78° S 13:50:04 10° ESE daylight
26 Oct - 15:48:13 10° W 15:55:10 49° SSW 16:07:19 10° SE daylight
26 Oct - 18:02:33 10° WSW 18:10:29 24° SSW 18:21:44 10° SSE daylight
27 Oct - 10:25:27 10° SW 10:29:10 43° SSE 10:33:37 10° E daylight
27 Oct - 12:37:22 10° W 12:41:52 80° S 12:48:59 10° E daylight
27 Oct - 14:49:24 10° W 14:55:22 57° SSW 15:05:53 10° ESE daylight
27 Oct - 17:02:39 10° W 17:10:02 29° SSW 17:21:25 10° SSE daylight
28 Oct - 09:26:52 10° SW 09:30:20 27° SSE 09:33:52 10° E daylight
28 Oct - 11:38:42 10° W 11:42:45 76° S 11:48:26 10° E daylight
28 Oct - 13:50:45 10° W 13:55:53 66° S 14:04:36 10° ESE daylight
28 Oct - 16:03:19 10° W 16:09:55 35° SSW 16:20:41 10° SE daylight
28 Oct - 18:20:10 10° WSW 18:25:20 14° SSW 18:31:39 10° S visible
29 Oct - 08:28:26 10° SSW 08:31:25 18° SSE 08:34:10 10° ESE daylight
29 Oct - 10:39:56 10° WSW 10:43:48 62° SSE 10:48:25 10° E daylight
29 Oct - 12:52:07 10° W 12:56:36 74° S 13:03:40 10° ESE daylight
29 Oct - 15:04:20 10° W 15:10:06 41° SSW 15:19:45 10° SE daylight
29 Oct - 17:18:57 10° WSW 17:24:54 18° SSW 17:32:56 10° S daylight
30 Oct - 07:30:27 10° S 07:32:20 12° SSE 07:34:02 10° SE daylight
30 Oct - 09:41:01 10° WSW 09:44:55 45° SSE 09:48:51 10° E daylight
30 Oct - 11:53:26 10° W 11:57:29 78° S 12:03:10 10° E daylight
30 Oct - 14:05:34 10° W 14:10:35 49° SSW 14:18:52 10° SE daylight
30 Oct - 16:18:58 10° WSW 16:24:45 23° SSW 16:33:10 10° SSE daylight
31 Oct - 08:41:59 10° SW 08:46:01 31° SSE 08:49:32 10° E daylight
31 Oct - 10:54:35 10° W 10:58:29 75° S 11:03:10 10° E daylight
31 Oct - 13:06:53 10° W 13:11:18 58° SSW 13:18:11 10° ESE daylight
31 Oct - 15:19:36 10° WSW 15:24:54 27° SSW 15:32:59 10° SSE daylight
01 Nov - 07:42:53 10° SSW 07:47:01 23° SSE 07:50:19 10° ESE daylight
01 Nov - 09:55:32 10° WSW 09:59:35 64° S 10:03:38 10° E daylight
01 Nov - 12:08:11 10° W 12:12:12 68° S 12:17:50 10° ESE daylight
01 Nov - 14:20:36 10° W 14:25:20 33° SSW 14:32:40 10° SE daylight
01 Nov - 16:36:13 10° SW 16:39:39 13° SSW 16:43:47 10° S daylight
